CW4206 Weather Reports


time (UTC)temp
C
wind
direction
speed
KPH
gust
KPH
rain 1hr
cm
rain 24hr
cm
rain mn
cm
humidity
%
barometer
mb
20260502183533 14 0 0.0 3.2 0.00 0.00 0.00 50 1012.9
20260502183053 14 165 0.0 4.8 0.00 0.00 0.00 50 1012.8
20260502182533 14 0 0.0 4.8 0.00 0.00 0.00 56 1012.9
20260502182031 13 0 0.0 3.2 0.00 0.00 0.00 56 1012.5
20260502181546 13 32 0.0 4.8 0.00 0.00 0.00 53 1012.5
20260502181032 13 0 1.6 4.8 0.00 0.00 0.00 52 1012.9
20260502180533 13 94 1.6 3.2 0.00 0.00 0.00 56 1012.7
20260502164033 12 0 0.0 1.6 0.00 0.00 0.00 70 1014.4
20260502163535 12 0 0.0 1.6 0.00 0.00 0.00 70 1014.5
20260502163051 12 120 0.0 1.6 0.00 0.00 0.00 70 1014.5
20260502162532 12 0 0.0 1.6 0.00 0.00 0.00 73 1014.5
20260502162036 12 0 0.0 1.6 0.00 0.00 0.00 73 1014.4
20260502161546 12 0 0.0 1.6 0.00 0.00 0.00 73 1014.3
20260502161032 12 0 0.0 3.2 0.00 0.00 0.00 73 1014.1
20260502160531 12 94 0.0 4.8 0.00 0.00 0.00 73 1014.1
20260502152031 12 350 0.0 3.2 0.00 0.00 0.00 75 1014.3
20260502151553 12 350 0.0 3.2 0.00 0.00 0.00 75 1014.2
20260502151031 12 350 1.6 3.2 0.00 0.00 0.00 76 1014.1
20260502150532 12 350 0.0 3.2 0.00 0.00 0.00 78 1014.1
20260502130533 12 0 0.0 3.2 0.00 0.00 0.00 83 1013.4
20260502123529 11 240 0.0 1.6 0.00 0.00 0.00 88 1013.0
20260502123043 10 0 0.0 1.6 0.00 0.00 0.00 89 1013.2
20260502122535 10 0 0.0 1.6 0.00 0.00 0.00 91 1013.3
20260502122033 10 0 0.0 0.0 0.00 0.00 0.00 92 1013.3
20260502121543 10 0 0.0 0.0 0.00 0.00 0.00 93 1013.4
20260502121034 10 0 0.0 0.0 0.00 0.00 0.00 93 1013.3
20260502120533 10 0 0.0 0.0 0.00 0.00 0.00 93 1013.2
20260502115535 10 0 0.0 0.0 0.00 0.00 0.00 95 1013.4
20260502115029 10 0 0.0 0.0 0.00 0.00 0.00 95 1013.4
20260502114603 10 0 0.0 0.0 0.00 0.00 0.00 95 1013.4
20260502114029 10 0 0.0 0.0 0.00 0.00 0.00 95 1013.5
20260502113533 9 0 0.0 0.0 0.00 0.00 0.00 94 1013.5
20260502113048 9 0 0.0 0.0 0.00 0.00 0.00 94 1013.5
20260502112531 9 0 0.0 0.0 0.00 0.00 0.00 95 1013.4
20260502112032 9 0 0.0 0.0 0.00 0.00 0.00 95 1013.4
20260502111540 9 0 0.0 0.0 0.00 0.00 0.00 95 1013.4
20260502111029 9 0 0.0 0.0 0.00 0.00 0.00 95 1013.4
20260502110532 9 0 0.0 0.0 0.00 0.00 0.00 95 1013.3
20260502110046 9 0 0.0 0.0 0.00 0.00 0.00 95 1013.4
20260502105532 9 0 0.0 0.0 0.00 0.00 0.00 95 1013.3
20260502105032 9 0 0.0 0.0 0.00 0.00 0.00 95 1013.4
20260502104549 9 0 0.0 0.0 0.00 0.00 0.00 95 1013.3
20260502104029 9 0 0.0 0.0 0.00 0.00 0.00 95 1013.2
20260502103533 9 0 0.0 0.0 0.00 0.00 0.00 95 1013.1
20260502103042 9 0 0.0 0.0 0.00 0.00 0.00 95 1013.2
20260502102531 9 0 0.0 0.0 0.00 0.00 0.00 95 1013.2
20260502102031 9 0 0.0 0.0 0.00 0.00 0.00 95 1013.0
20260502101612 9 0 0.0 0.0 0.00 0.00 0.00 95 1013.0
20260502101032 9 0 0.0 0.0 0.00 0.00 0.00 95 1012.9
20260502100529 9 0 0.0 0.0 0.00 0.00 0.00 95 1012.8
20260502091032 8 0 0.0 0.0 0.00 0.00 0.00 95 1012.3
20260502090531 8 0 0.0 0.0 0.00 0.00 0.00 95 1012.3
20260502090105 8 0 0.0 0.0 0.00 0.00 0.00 95 1012.2
20260502071033 9 0 0.0 0.0 0.00 0.00 0.00 94 1011.9
20260502070534 9 0 0.0 0.0 0.00 0.00 0.00 94 1011.8
20260502070057 9 0 0.0 0.0 0.00 0.00 0.00 94 1011.8
20260502065532 9 0 0.0 0.0 0.00 0.00 0.00 94 1011.9
20260502065036 9 0 0.0 0.0 0.00 0.00 0.00 94 1011.9
20260502064548 9 0 0.0 0.0 0.00 0.00 0.00 93 1012.1
20260502064029 9 0 0.0 0.0 0.00 0.00 0.00 93 1012.1
20260502063531 9 0 0.0 0.0 0.00 0.00 0.00 93 1012.1
20260502063056 9 0 0.0 0.0 0.00 0.00 0.00 93 1012.0
20260502062533 9 0 0.0 0.0 0.00 0.00 0.00 93 1012.0
20260502062033 9 0 0.0 0.0 0.00 0.00 0.00 93 1012.0
20260502061546 9 0 0.0 0.0 0.00 0.00 0.00 93 1012.1
20260502061031 9 0 0.0 0.0 0.00 0.00 0.00 93 1012.1
20260502060530 9 0 0.0 0.0 0.00 0.00 0.00 93 1012.2
20260502060044 9 0 0.0 0.0 0.00 0.00 0.00 92 1012.3
20260502055529 9 0 0.0 0.0 0.00 0.00 0.00 93 1012.4
20260502055029 9 0 0.0 0.0 0.00 0.00 0.00 93 1012.5
20260502054543 9 0 0.0 0.0 0.00 0.00 0.00 93 1012.4
20260502054028 9 0 0.0 0.0 0.00 0.00 0.00 93 1012.7
20260502053534 9 0 0.0 0.0 0.00 0.00 0.00 93 1012.8
20260502053044 9 0 0.0 0.0 0.00 0.00 0.00 92 1013.0
20260502052530 9 0 0.0 0.0 0.00 0.00 0.00 92 1013.0
20260502052032 9 0 0.0 0.0 0.00 0.00 0.00 92 1013.0
20260502051612 9 0 0.0 0.0 0.00 0.00 0.00 92 1013.0
20260502051031 9 0 0.0 0.0 0.00 0.00 0.00 92 1013.0
20260502050533 9 0 0.0 0.0 0.00 0.00 0.00 91 1013.1
20260502050050 10 0 0.0 0.0 0.00 0.00 0.00 91 1013.1
20260502045529 10 0 0.0 0.0 0.00 0.00 0.00 91 1013.2
20260502045031 10 0 0.0 0.0 0.00 0.00 0.00 90 1013.2
20260502044546 10 0 0.0 0.0 0.00 0.00 0.00 90 1013.2
20260502044028 10 0 0.0 0.0 0.00 0.00 0.00 90 1013.3
20260502043533 10 0 0.0 0.0 0.00 0.00 0.00 90 1013.5
20260502043048 10 0 0.0 0.0 0.00 0.00 0.00 90 1013.4
20260502042532 10 0 0.0 0.0 0.00 0.00 0.00 89 1013.4
20260502042032 10 0 0.0 0.0 0.00 0.00 0.00 89 1013.4
20260502041551 10 0 0.0 0.0 0.00 0.00 0.00 89 1013.4
20260502041031 10 0 0.0 0.0 0.00 0.00 0.00 89 1013.4
20260502040534 10 0 0.0 0.0 0.00 0.00 0.00 89 1013.4
20260502040054 10 0 0.0 0.0 0.00 0.00 0.00 89 1013.4
20260502035528 10 0 0.0 0.0 0.00 0.00 0.00 89 1013.4
20260502035033 10 0 0.0 0.0 0.00 0.00 0.00 88 1013.5
20260502034548 10 0 0.0 0.0 0.00 0.00 0.00 88 1013.6
20260502034032 10 0 0.0 0.0 0.00 0.00 0.00 87 1013.6
20260502033531 11 0 0.0 0.0 0.00 0.00 0.00 87 1013.6
20260502033045 11 0 0.0 0.0 0.00 0.00 0.00 87 1013.6
20260502032532 11 0 0.0 0.0 0.00 0.00 0.00 86 1013.5
20260502032029 11 0 0.0 0.0 0.00 0.00 0.00 86 1013.6
20260502031542 11 0 0.0 0.0 0.00 0.00 0.00 86 1013.5
20260502031033 11 0 0.0 0.0 0.00 0.00 0.00 85 1013.4
20260502030533 11 0 0.0 0.0 0.00 0.00 0.00 85 1013.5
20260502030050 11 0 0.0 0.0 0.00 0.00 0.00 85 1013.5
20260502025529 11 0 0.0 0.0 0.00 0.00 0.00 84 1013.4
20260502025033 11 0 0.0 1.6 0.00 0.00 0.00 84 1013.2
20260502024543 11 0 0.0 1.6 0.00 0.00 0.00 84 1013.2
20260502024032 11 0 0.0 1.6 0.00 0.00 0.00 83 1013.2
20260502023532 11 0 0.0 0.0 0.00 0.00 0.00 83 1013.2
20260502023055 11 0 0.0 1.6 0.00 0.00 0.00 83 1013.1
20260502022531 11 0 0.0 1.6 0.00 0.00 0.00 83 1013.2
20260502022036 11 0 0.0 1.6 0.00 0.00 0.00 82 1013.4
20260502021546 11 0 0.0 0.0 0.00 0.00 0.00 82 1013.4
20260502021035 12 0 0.0 0.0 0.00 0.00 0.00 81 1013.4
20260502020532 12 0 0.0 0.0 0.00 0.00 0.00 81 1013.4
20260502015532 12 0 0.0 0.0 0.00 0.00 0.00 80 1013.6
20260502015031 12 0 0.0 0.0 0.00 0.00 0.00 79 1013.5
20260502014551 12 0 0.0 1.6 0.00 0.00 0.00 79 1013.6
20260502014032 12 0 0.0 1.6 0.00 0.00 0.00 78 1013.5
20260502013531 12 236 0.0 0.0 0.00 0.00 0.00 78 1013.4
20260502013058 12 0 0.0 1.6 0.00 0.00 0.00 77 1013.2
20260502012531 12 0 0.0 1.6 0.00 0.00 0.00 77 1013.3
20260502012034 12 0 0.0 3.2 0.00 0.00 0.00 76 1013.2
20260502011547 13 0 0.0 3.2 0.00 0.00 0.00 75 1013.2
20260502011033 13 0 0.0 1.6 0.00 0.00 0.00 74 1013.1
20260502010532 13 0 0.0 1.6 0.00 0.00 0.00 74 1013.0
20260502010047 13 0 0.0 6.4 0.00 0.00 0.00 74 1012.9
20260502005532 13 0 0.0 6.4 0.00 0.00 0.00 74 1012.9
20260502005033 13 199 0.0 6.4 0.00 0.00 0.00 73 1012.8
20260502004605 13 0 0.0 3.2 0.00 0.00 0.00 73 1012.4
20260502004029 13 0 0.0 3.2 0.00 0.00 0.00 72 1012.3
20260502003531 13 0 0.0 3.2 0.00 0.00 0.00 72 1012.2
20260502003045 14 0 0.0 3.2 0.00 0.00 0.00 71 1012.3
20260502002529 14 0 0.0 4.8 0.00 0.00 0.00 72 1012.4
20260502002032 14 0 0.0 4.8 0.00 0.00 0.00 71 1012.3
20260502001604 15 297 0.0 11.3 0.00 0.00 0.00 70 1012.1
20260502001031 15 0 1.6 11.3 0.00 0.00 0.00 69 1012.2
20260502000531 15 263 0.0 8.0 0.00 0.00 0.00 68 1012.2
20260502000051 15 244 0.0 8.0 0.00 0.00 0.00 67 1012.2
20260501235533 15 0 0.0 4.8 0.00 0.00 0.00 66 1012.2
20260501235032 15 0 0.0 1.6 0.00 0.00 0.00 66 1012.1
20260501234550 15 0 0.0 3.2 0.00 0.00 0.00 64 1012.1
20260501234032 16 0 0.0 3.2 0.00 0.00 0.00 64 1012.0
20260501233532 16 0 0.0 8.0 0.00 0.00 0.00 63 1012.1
20260501233054 16 0 0.0 8.0 0.00 0.00 0.00 62 1012.1
20260501232530 16 0 0.0 6.4 0.00 0.00 0.00 62 1012.0
20260501232033 16 231 0.0 6.4 0.00 0.00 0.00 60 1011.9
20260501231548 16 0 0.0 6.4 0.00 0.00 0.00 59 1011.9
20260501231032 16 0 0.0 3.2 0.00 0.00 0.00 59 1011.8
20260501230534 17 193 0.0 3.2 0.00 0.00 0.00 59 1011.8
20260501230041 17 194 0.0 4.8 0.00 0.00 0.00 59 1011.8
20260501225530 17 0 0.0 6.4 0.00 0.00 0.00 59 1011.8
20260501225034 17 201 1.6 6.4 0.00 0.00 0.00 57 1011.9
20260501224543 17 0 0.0 4.8 0.00 0.00 0.00 60 1011.9
20260501224033 17 319 0.0 3.2 0.00 0.00 0.00 57 1012.0
20260501223536 17 205 0.0 3.2 0.00 0.00 0.00 57 1011.9
20260501223042 17 205 0.0 3.2 0.00 0.00 0.00 56 1012.0
20260501222533 17 0 0.0 11.3 0.00 0.00 0.00 56 1012.0
20260501222033 17 147 1.6 11.3 0.00 0.00 0.00 55 1012.0
20260501221545 17 164 1.6 6.4 0.00 0.00 0.00 55 1012.1
20260501221034 18 0 0.0 4.8 0.00 0.00 0.00 54 1012.1
20260501220533 18 196 0.0 4.8 0.00 0.00 0.00 54 1012.1
20260501220117 18 190 0.0 3.2 0.00 0.00 0.00 54 1012.3
20260501215535 18 0 0.0 8.0 0.00 0.00 0.00 55 1012.1
20260501215037 18 0 0.0 8.0 0.00 0.00 0.00 51 1012.1
20260501214545 18 308 1.6 6.4 0.00 0.00 0.00 52 1012.2
20260501214033 18 223 0.0 12.9 0.00 0.00 0.00 53 1012.3
20260501213534 18 242 3.2 12.9 0.00 0.00 0.00 50 1012.3
20260501213039 18 0 0.0 11.3 0.00 0.00 0.00 50 1012.2
20260501212534 18 252 0.0 11.3 0.00 0.00 0.00 53 1012.3
20260501212033 18 0 1.6 12.9 0.00 0.00 0.00 50 1012.3
20260501211548 18 242 1.6 12.9 0.00 0.00 0.00 51 1012.3
20260501211033 18 200 0.0 8.0 0.00 0.00 0.00 50 1012.3
20260501210533 18 220 1.6 8.0 0.00 0.00 0.00 49 1012.3
20260501205533 19 215 0.0 9.7 0.00 0.00 0.00 49 1012.4
20260501205035 19 0 0.0 9.7 0.00 0.00 0.00 47 1012.4
20260501204546 19 192 1.6 9.7 0.00 0.00 0.00 44 1012.4
20260501204033 19 211 1.6 8.0 0.00 0.00 0.00 44 1012.5
20260501203532 20 0 1.6 8.0 0.00 0.00 0.00 47 1012.4
20260501203044 20 190 1.6 11.3 0.00 0.00 0.00 46 1012.6
20260501202532 20 0 1.6 11.3 0.00 0.00 0.00 44 1012.4
20260501202034 20 191 0.0 11.3 0.00 0.00 0.00 48 1012.6
20260501201546 20 0 1.6 11.3 0.00 0.00 0.00 48 1012.7
20260501201032 20 164 0.0 6.4 0.00 0.00 0.00 45 1012.9
20260501200532 20 203 1.6 6.4 0.00 0.00 0.00 45 1013.0
20260501200041 20 234 0.0 6.4 0.00 0.00 0.00 47 1013.0
20260501195533 20 0 0.0 8.0 0.00 0.00 0.00 45 1013.2
20260501195032 19 5 0.0 8.0 0.00 0.00 0.00 45 1013.2
20260501194549 20 191 1.6 8.0 0.00 0.00 0.00 44 1013.4
20260501194034 20 229 1.6 8.0 0.00 0.00 0.00 45 1013.4
20260501193533 20 196 0.0 11.3 0.00 0.00 0.00 44 1013.6
20260501193049 20 336 0.0 11.3 0.00 0.00 0.00 43 1013.7
20260501192533 20 213 1.6 11.3 0.00 0.00 0.00 40 1013.7
20260501192033 20 0 0.0 3.2 0.00 0.00 0.00 43 1013.7
20260501191549 20 0 0.0 9.7 0.00 0.00 0.00 44 1013.8
20260501191032 20 0 1.6 11.3 0.00 0.00 0.00 46 1013.8
20260501190536 20 223 1.6 11.3 0.00 0.00 0.00 43 1014.0
20260501190052 20 259 3.2 11.3 0.00 0.00 0.00 42 1014.0
20260501185532 20 223 0.0 6.4 0.00 0.00 0.00 44 1014.1
20260501185032 20 0 1.6 4.8 0.00 0.00 0.00 44 1014.2
20260501184545 20 146 0.0 8.0 0.00 0.00 0.00 43 1014.2
20260501184034 20 0 0.0 8.0 0.00 0.00 0.00 38 1014.3